Overview Statistics Trail Chart Weather Telemetry Raw packets
 

This is the latest recevied weather packets stored in our database for station/object SR4DIG-13. If no packets are shown the sender has not sent any weather packets the latest 10 day(s).

<< 28 29 30 31 32 33 34 >>
Time Temp. Humidity Pressure Rain* Wind** Luminosity Snow
1788439681 28.33° C 36% 1015.2 hPa 0 mm - - -
1788439380 28.33° C 37% 1015.2 hPa 0 mm - - -
1788439079 28.89° C 37% 1015.2 hPa 0 mm - - -
1788438778 28.89° C 35% 1015.3 hPa 0 mm - - -
1788438477 30° C 35% 1015.3 hPa 0 mm - - -
1788438166 29.44° C 35% 1015.5 hPa 0 mm - - -
1788437299 30.56° C 34% 1015.4 hPa 0 mm - - -
1788436998 30.56° C 35% 1015.5 hPa 0 mm - - -
1788436697 30° C 35% 1015.5 hPa 0 mm - - -
1788436396 30.56° C 35% 1015.5 hPa 0 mm - - -
1788436095 30° C 36% 1015.5 hPa 0 mm - - -
1788435794 29.44° C 36% 1015.7 hPa 0 mm - - -
1788435493 28.89° C 37% 1015.7 hPa 0 mm - - -
1788435192 28.33° C 38% 1015.8 hPa 0 mm - - -
1788434891 27.22° C 41% 1015.8 hPa 0 mm - - -
1788434590 25° C 45% 1016 hPa 0 mm - - -
1788434289 23.89° C 46% 1016.1 hPa 0 mm - - -
1788433688 23.89° C 45% 1016.1 hPa 0 mm - - -
1788433387 23.89° C 44% 1016.2 hPa 0 mm - - -
1788433086 24.44° C 43% 1016.3 hPa 0 mm - - -
1788432785 25.56° C 42% 1016.2 hPa 0 mm - - -
1788432484 26.11° C 40% 1016.2 hPa 0 mm - - -
1788432183 27.22° C 38% 1016.4 hPa 0 mm - - -
1788431882 28.89° C 38% 1016.4 hPa 0 mm - - -
1788431303 30° C 37% 1016.5 hPa 0 mm - - -

* Rain latest hour (hover to see other rain measurements)
** Current wind speed in m/s (hover to see current wind gust speed)